Tottori current weather conditions

sailwx.info

Wind from 130 at 4 knots

Air temperature 9.0° C
Visibility: greater than 5.4 NM
Dewpoint -0.0° C

Last reported at 2015-Jan-25 02:00 UTC.
Time now 2015-Jan-25 03:50 UTC

Location: N 35°32' E 134°10'.
View on Google Maps.

See reports from other nearby stations

  
Tides and Currents Weather Stations Pressure Air Temp Water Temp Dewpoint Dewpoint Depression Visibility Wind Speed Wind Dir Waves Ship Positions
date/time (UTC)wind fromknots sea level pressurealtimeterstation pressurevisibilityair tempwater tempwave heightnotes
2015-Jan-25 02:00 130 4 5.4 9.0
2015-Jan-25 01:00 140 7 5.4 7.0
2015-Jan-25 00:00 150 5 5.4 6.0
2015-Jan-24 23:00 140 8 5.4 4.0
2015-Jan-24 22:00 130 8 5.4 4.0
2015-Jan-24 21:30 130 7 5.4 4.0
2015-Jan-24 21:10 150 7 5.4 4.0
2015-Jan-24 12:00 240 7 5.4 8.0
2015-Jan-24 11:00 250 13 5.4 8.0
2015-Jan-24 10:00 280 23 5.4 9.0
2015-Jan-24 09:00 280 20 5.4 9.0
2015-Jan-24 08:00 290 22 5.4 9.0
2015-Jan-24 07:00 290 20 5.410.0
2015-Jan-24 06:00 240 7 5.411.0
2015-Jan-24 05:00 280 11 5.411.0
2015-Jan-24 04:00 270 9 5.411.0
2015-Jan-24 03:00 160 11 5.410.0
2015-Jan-24 02:00 150 10 5.4 9.0
2015-Jan-24 01:00 140 9 5.4 6.0
2015-Jan-24 00:00 140 9 5.4 5.0
2015-Jan-23 23:00 140 11 5.4 4.0
2015-Jan-23 22:00 150 8 5.4 3.0
2015-Jan-23 21:30 140 6 5.4 4.0
2015-Jan-23 21:10 150 7 5.4 4.0
2015-Jan-23 12:00 310 10 5.4 6.0
2015-Jan-23 11:00 320 9 5.4 6.0
2015-Jan-23 10:00 310 11 5.4 6.0
2015-Jan-23 09:00 320 11 5.4 6.0
2015-Jan-23 08:00 330 12 5.4 6.0
2015-Jan-23 07:00 320 15 5.4 6.0
2015-Jan-23 06:00 320 13 5.4 6.0
2015-Jan-23 05:00 310 19 5.4 7.0
2015-Jan-23 04:00 010 15 5.4 6.0
2015-Jan-23 03:00 330 16 5.4 6.0